[[{"header":{"parameterUnit":"m.s-1","parameterCategory":1,"la1":30.2991,"la2":30.254,"lo1":-89.0895,"lo2":-89.0444,"dy":0.0017,"dx":0.0017,"nx":28,"ny":28,"refTime":"2023-08-29T03:00:00:Z","depth":0,"parameterNumber":2,"parameterNumberName":"U-component_of_WINDS"},"data":[0,0,0,0,0,0,0,0,0,0,0,0,0,0,0,0,0,0,0,0,0,0,0,0,0,0,0,0,0,0,0,0,0,0,0,0,0,0,0,0,0,0,0,0,0,0,0,0,0,0,0,0,0,0,0,0,0,0,-2.2501,-2.25,0,-2.2393,-2.2391,-2.239,-2.2301,-2.23,-2.2299,-2.2298,-2.2184,-2.2182,-2.218,0,0,0,0,0,0,0,0,0,0,0,0,0,-2.2628,-2.2626,-2.2501,-2.25,-2.2499,-2.2393,-2.2391,-2.239,-2.2301,-2.23,-2.2298,-2.2297,-2.2185,-2.2182,-2.218,0,0,0,0,0,0,0,0,0,0,0,0,0,-2.2552,-2.2625,-2.2501,-2.2441,-2.2435,-2.2393,-2.2391,-2.2389,-2.2301,-2.23,-2.2298,-2.2297,-2.2186,-2.2183,-2.2179,-2.2188,0,0,-2.217,-2.2168,0,0,0,0,0,0,0,0,-2.2556,-2.2547,-2.2452,-2.2445,-2.2438,-2.2359,-2.2394,-2.2322,-2.2301,-2.2352,-2.2298,-2.2296,-2.2243,-2.2235,-2.2218,-2.2183,-2.2178,-2.2169,-2.2167,-2.2166,-2.2165,0,0,0,0,0,0,0,-2.2561,-2.2551,-2.2458,-2.245,-2.2442,-2.2419,-2.2406,-2.238,-2.2307,-2.2347,-2.2341,-2.2329,-2.2239,-2.2221,-2.2215,-2.2176,-2.2169,-2.2167,-2.2165,-2.2163,-2.214,-2.2141,0,0,0,0,0,0,-2.2576,-2.2556,-2.2462,-2.2455,-2.2495,-2.2418,-2.2404,-2.2386,-2.2307,-2.2293,-2.233,-2.2325,-2.2227,-2.2218,-2.221,-2.2214,-2.2166,-2.2163,-2.2161,-2.2139,-2.214,-2.2142,0,0,0,0,0,0,-2.2579,-2.2569,-2.2466,-2.2504,-2.2489,-2.2417,-2.2397,-2.2384,-2.2366,-2.2294,-2.228,-2.2326,-2.2226,-2.2215,-2.2194,-2.2208,-2.2162,-2.2159,-2.2137,-2.2139,-2.2141,-2.2222,0,0,0,0,0,0,-2.2583,-2.257,-2.2574,-2.2504,-2.2487,-2.2453,-2.2398,-2.2383,-2.2361,-2.2353,-2.2286,-2.2273,-2.2224,-2.2199,-2.2191,-2.2203,-2.2156,-2.2136,-2.2138,-2.214,-2.2217,-2.2226,-2.2234,0,0,0,0,0,-2.2588,-2.2601,-2.2574,-2.2564,-2.249,-2.2454,-2.2444,-2.2388,-2.2363,-2.2365,-2.2318,-2.2275,-2.2209,-2.2198,-2.2187,-2.2199,-2.2134,-2.2137,-2.214,-2.2214,-2.2224,-2.2234,0,0,0,0,0,0,-2.2673,-2.2591,-2.2561,-2.2551,-2.251,-2.2439,-2.244,-2.2401,-2.2366,-2.236,-2.2291,-2.2276,-2.2263,-2.2229,-2.2218,-2.2202,-2.2166,-2.2167,-2.2225,-2.2235,-2.2243,-2.2251,-2.2153,0,0,0,0,0,-2.2691,-2.2669,-2.2598,-2.2596,-2.2577,-2.2513,-2.2495,-2.2455,-2.2409,-2.2391,-2.2343,-2.23,-2.2269,-2.225,-2.2217,-2.2212,-2.2195,-2.2215,-2.2223,-2.223,-2.2232,-2.2225,-2.2232,-2.2151,-2.2151,-2.2151,0,0,-2.2727,-2.2679,-2.267,-2.2612,-2.2576,-2.2554,-2.2499,-2.2478,-2.2461,-2.2388,-2.2365,-2.2328,-2.2275,-2.2262,-2.2254,-2.2233,-2.225,-2.2234,-2.224,-2.2238,-2.2229,-2.2236,-2.2243,-2.2153,-2.2153,-2.2153,0,0,-2.2782,-2.2744,-2.2738,-2.2703,-2.2648,-2.2605,-2.2604,-2.2538,-2.2511,-2.2487,-2.2431,-2.2409,-2.2358,-2.2322,-2.2297,-2.2337,-2.2296,-2.2328,-2.237,-2.2365,-2.2371,-2.2376,-2.2389,-2.2395,-2.233,-2.233,-2.233,0,-2.2834,-2.2799,-2.274,-2.2722,-2.2698,-2.2631,-2.2624,-2.2592,-2.253,-2.2514,-2.2492,-2.2425,-2.2385,-2.2362,-2.2372,-2.2354,-2.2349,-2.2335,-2.2375,-2.238,-2.2384,-2.2396,-2.2401,-2.2334,-2.2334,-2.2333,-2.2333,0,-2.2865,-2.2842,-2.2843,-2.2785,-2.2761,-2.2749,-2.2686,-2.2668,-2.263,-2.2589,-2.2565,-2.2514,-2.2469,-2.2461,-2.2424,-2.2432,-2.2421,-2.2388,-2.235,-2.2397,-2.2407,-2.2411,-2.234,-2.2339,-2.2338,-2.2337,0,0,-2.2971,-2.2879,-2.2881,-2.2853,-2.2787,-2.2768,-2.2752,-2.2709,-2.2695,-2.2654,-2.2638,-2.2595,-2.2564,-2.2536,-2.2494,-2.2489,-2.2522,-2.2456,-2.2454,-2.2469,-2.2526,-2.2551,-2.2558,-2.2495,-2.2495,-2.2496,-2.2531,0,-2.3014,-2.2983,-2.2928,-2.2913,-2.289,-2.2826,-2.2812,-2.277,-2.273,-2.2704,-2.266,-2.2631,-2.2593,-2.2575,-2.2567,-2.252,-2.2532,-2.2517,-2.2478,-2.2477,-2.2493,-2.2563,-2.2589,-2.2624,-2.2534,-2.2535,-2.2535,0,-2.3061,-2.3024,-2.3008,-2.2943,-2.2931,-2.2919,-2.2875,-2.2851,-2.2801,-2.2772,-2.2741,-2.2695,-2.2673,-2.2638,-2.2607,-2.2597,-2.2578,-2.2552,-2.2552,-2.2546,-2.2509,-2.2558,-2.2635,-2.264,-2.2541,-2.254,-2.254,0,-2.3139,-2.3085,-2.3067,-2.3046,-2.297,-2.2963,-2.2931,-2.288,-2.2857,-2.2817,-2.2802,-2.2761,-2.2738,-2.2706,-2.265,-2.263,-2.2624,-2.2585,-2.2598,-2.26,-2.26,-2.26,-2.2674,-2.2589,-2.2589,-2.2588,-2.2588,0,-2.3193,-2.3185,-2.3101,-2.3091,-2.3079,-2.3016,-2.3006,-2.2968,-2.2923,-2.2902,-2.2844,-2.2827,-2.2753,-2.2726,-2.2682,-2.2662,-2.2652,-2.2627,-2.2615,-2.2632,-2.2635,-2.2618,-2.2614,-2.259,-2.259,-2.2589,-2.2589,0,-2.3278,-2.3222,-2.3198,-2.3128,-2.311,-2.3105,-2.3044,-2.3031,-2.2987,-2.2963,-2.2953,-2.2885,-2.285,-2.2791,-2.2739,-2.2709,-2.2697,-2.2677,-2.2714,-2.2707,-2.2723,-2.2722,-2.2788,-2.2793,-2.2706,-2.2707,-2.2708,0,-2.3316,-2.3309,-2.3238,-2.322,-2.319,-2.3163,-2.3139,-2.3076,-2.3053,-2.2995,-2.2989,-2.295,-2.2915,-2.2862,-2.2807,-2.2767,-2.2745,-2.2771,-2.2739,-2.2755,-2.2744,-2.2746,-2.2744,-2.2778,-2.278,-2.2781,-2.2782,0,-2.339,-2.3362,-2.3331,-2.3289,-2.3262,-2.3227,-2.3188,-2.3176,-2.3104,-2.3081,-2.3045,-2.3019,-2.2965,-2.2927,-2.2878,-2.2844,-2.28,-2.2792,-2.2793,-2.281,-2.2831,-2.2819,-2.2734,-2.2791,-2.279,-2.2789,-2.2789,-2.2788,-2.3452,-2.3442,-2.339,-2.3356,-2.332,-2.3285,-2.3268,-2.3223,-2.3192,-2.3144,-2.3108,-2.3074,-2.3023,-2.2953,-2.2921,-2.2893,-2.2873,-2.2875,-2.2875,-2.2876,-2.2883,-2.2836,-2.2884,-2.2884,-2.2884,-2.2883,-2.2883,0,-2.3522,-2.3485,-2.3455,-2.3402,-2.3375,-2.3337,-2.3291,-2.3271,-2.3243,-2.3199,-2.3166,-2.3123,-2.3085,-2.3027,-2.2984,-2.2973,-2.2952,-2.2964,-2.2964,-2.2956,-2.2903,-2.2906,-2.2982,-2.2982,-2.2981,-2.2981,-2.2981,-2.2981,-2.3555,-2.3535,-2.3501,-2.3462,-2.3425,-2.3392,-2.3369,-2.3335,-2.33,-2.3256,-2.3224,-2.3186,-2.3136,-2.3089,-2.3052,-2.3035,-2.3022,-2.304,-2.3018,-2.2969,-2.296,-2.2951,-2.2954,-2.3038,-2.3038,-2.3073,-2.3073,-2.3074]},{"header":{"parameterUnit":"m.s-1","parameterCategory":1,"la1":30.2991,"la2":30.254,"lo1":-89.0895,"lo2":-89.0444,"dy":0.0017,"dx":0.0017,"nx":28,"ny":28,"refTime":"2023-08-29T03:00:00:Z","depth":0,"parameterNumber":3,"parameterNumberName":"V-component_of_WINDS"},"data":[0,0,0,0,0,0,0,0,0,0,0,0,0,0,0,0,0,0,0,0,0,0,0,0,0,0,0,0,0,0,0,0,0,0,0,0,0,0,0,0,0,0,0,0,0,0,0,0,0,0,0,0,0,0,0,0,0,0,0.5786,0.5785,0,0.5718,0.5717,0.5716,0.5569,0.5566,0.5563,0.5561,0.549,0.5491,0.5492,0,0,0,0,0,0,0,0,0,0,0,0,0,0.5791,0.5792,0.5786,0.5785,0.5784,0.5718,0.5717,0.5716,0.557,0.5566,0.5563,0.5559,0.549,0.5491,0.5492,0,0,0,0,0,0,0,0,0,0,0,0,0,0.5763,0.5792,0.5786,0.5703,0.5695,0.5718,0.5717,0.5716,0.5571,0.5566,0.5562,0.5557,0.549,0.5491,0.5492,0.559,0,0,0.5496,0.5497,0,0,0,0,0,0,0,0,0.5764,0.5763,0.5716,0.5709,0.57,0.5647,0.5693,0.5674,0.5572,0.5618,0.556,0.5555,0.5546,0.5543,0.5539,0.5587,0.5584,0.5496,0.5497,0.5498,0.5498,0,0,0,0,0,0,0,0.5767,0.5765,0.5759,0.5716,0.5706,0.567,0.5661,0.5689,0.5608,0.5613,0.5603,0.5597,0.5541,0.5539,0.5537,0.5582,0.5496,0.5498,0.5498,0.5499,0.571,0.5715,0,0,0,0,0,0,0.578,0.5767,0.5761,0.5757,0.5722,0.5674,0.5664,0.5669,0.5607,0.5593,0.5601,0.559,0.5538,0.5535,0.5534,0.5646,0.5498,0.5499,0.55,0.5706,0.5711,0.5717,0,0,0,0,0,0,0.5781,0.5781,0.5764,0.5759,0.5754,0.5678,0.5685,0.567,0.5667,0.5597,0.5582,0.5613,0.5535,0.5532,0.5578,0.5641,0.55,0.5501,0.57,0.5707,0.5714,0.587,0,0,0,0,0,0,0.5782,0.5782,0.5818,0.5761,0.5755,0.5809,0.5689,0.5672,0.567,0.5656,0.5605,0.5592,0.5531,0.5577,0.5579,0.564,0.5502,0.5694,0.5703,0.5712,0.5859,0.5882,0.5901,0,0,0,0,0,0.5783,0.5863,0.582,0.582,0.5798,0.5812,0.5809,0.5737,0.5676,0.5711,0.5667,0.5594,0.5635,0.5583,0.5584,0.5647,0.5689,0.5701,0.5711,0.5849,0.5877,0.5901,0,0,0,0,0,0,0.5927,0.5854,0.5805,0.587,0.5849,0.5788,0.5829,0.5768,0.5763,0.575,0.5661,0.5651,0.571,0.5683,0.5626,0.574,0.5651,0.5662,0.5755,0.5781,0.5802,0.5806,0.5503,0,0,0,0,0,0.5967,0.5985,0.592,0.5983,0.5976,0.5906,0.5909,0.5856,0.583,0.582,0.5779,0.5757,0.5765,0.5772,0.5775,0.5855,0.5843,0.59,0.5921,0.5939,0.5949,0.5993,0.6017,0.5752,0.5752,0.5752,0,0,0.6048,0.6011,0.6027,0.6012,0.5989,0.6011,0.5898,0.5925,0.594,0.5824,0.5865,0.5836,0.5805,0.587,0.5896,0.5849,0.6021,0.5952,0.5967,0.5968,0.6006,0.6032,0.6054,0.576,0.5758,0.5757,0,0,0.6207,0.6181,0.6232,0.6213,0.6181,0.6134,0.6148,0.6097,0.6073,0.6113,0.6028,0.6046,0.606,0.6043,0.6036,0.6197,0.613,0.6201,0.631,0.6354,0.6375,0.6393,0.6451,0.6473,0.6212,0.6212,0.6212,0,0.6312,0.6341,0.6265,0.6299,0.6296,0.6195,0.6247,0.6232,0.6203,0.6203,0.6152,0.6171,0.6143,0.6204,0.6244,0.6242,0.6254,0.6204,0.6378,0.6395,0.6411,0.6465,0.6487,0.6221,0.622,0.6219,0.6218,0,0.6472,0.6494,0.6539,0.6516,0.6518,0.6561,0.6494,0.6505,0.6455,0.6415,0.6459,0.6424,0.6419,0.643,0.6379,0.6485,0.6457,0.6394,0.6301,0.6446,0.6496,0.6516,0.6234,0.623,0.6228,0.6226,0,0,0.6714,0.6654,0.6672,0.6662,0.6622,0.6638,0.6678,0.6675,0.6688,0.6673,0.6705,0.6723,0.6665,0.6658,0.6605,0.6644,0.6775,0.6575,0.6573,0.6614,0.6892,0.6939,0.6965,0.6732,0.6736,0.6738,0.6894,0,0.6864,0.6928,0.6865,0.6942,0.6963,0.687,0.6905,0.6886,0.6851,0.6865,0.6826,0.6841,0.6762,0.6758,0.6792,0.6752,0.683,0.674,0.6761,0.6763,0.677,0.699,0.7039,0.7188,0.6913,0.6916,0.6919,0,0.7044,0.7041,0.7121,0.7081,0.7087,0.712,0.7115,0.7129,0.7106,0.7079,0.7074,0.7012,0.705,0.6963,0.7015,0.6956,0.6961,0.6944,0.6948,0.6945,0.6848,0.6994,0.7233,0.7256,0.6948,0.6946,0.6944,0,0.7214,0.723,0.728,0.7275,0.7229,0.7255,0.7237,0.721,0.7214,0.721,0.7212,0.7213,0.7213,0.7216,0.7156,0.7098,0.7217,0.7124,0.7196,0.7197,0.7222,0.7221,0.7466,0.7229,0.7228,0.7228,0.7227,0,0.7386,0.7439,0.7357,0.7388,0.7446,0.7374,0.7433,0.7406,0.7384,0.7409,0.733,0.7355,0.7276,0.7294,0.7248,0.7299,0.73,0.7279,0.7266,0.7285,0.7288,0.7286,0.7274,0.7234,0.7232,0.7231,0.723,0,0.7584,0.7531,0.758,0.7535,0.7525,0.757,0.7531,0.7559,0.7522,0.7555,0.7558,0.7499,0.7517,0.7459,0.7466,0.7435,0.7511,0.7482,0.7519,0.751,0.7585,0.7579,0.7836,0.7866,0.7611,0.7613,0.7615,0,0.7696,0.7735,0.7696,0.7708,0.7695,0.7715,0.772,0.7653,0.7661,0.7642,0.7673,0.7685,0.7689,0.7722,0.768,0.7686,0.7656,0.7746,0.7656,0.7675,0.7657,0.7655,0.7659,0.7763,0.7767,0.7769,0.7771,0,0.7901,0.7875,0.7885,0.7889,0.7898,0.7897,0.789,0.7904,0.7833,0.7847,0.7865,0.7869,0.7879,0.7892,0.789,0.7872,0.7811,0.7801,0.7818,0.7837,0.7857,0.7848,0.7569,0.7794,0.7792,0.779,0.7789,0.7788,0.8059,0.8091,0.807,0.8085,0.8075,0.8072,0.8097,0.8065,0.8078,0.8082,0.8042,0.8069,0.805,0.8042,0.8031,0.8052,0.801,0.8034,0.804,0.8047,0.806,0.7856,0.8051,0.8051,0.805,0.8049,0.8049,0,0.826,0.8244,0.8259,0.8254,0.8268,0.8212,0.8203,0.8218,0.8243,0.8231,0.824,0.8263,0.8276,0.8238,0.8246,0.827,0.8243,0.8275,0.8271,0.8269,0.8097,0.8081,0.8297,0.8297,0.8297,0.8297,0.8297,0.8297,0.8366,0.8418,0.839,0.8438,0.842,0.8447,0.8447,0.8445,0.8436,0.8465,0.8477,0.8453,0.8431,0.8438,0.8449,0.8437,0.8444,0.8486,0.8465,0.8305,0.828,0.8257,0.8242,0.8488,0.8489,0.8635,0.8636,0.8637]}]]